Flag Island, MN

11:54 PM CDT on June 23, 2017 (GMT -0500)
Flag Island

Weather History for KFGN - October, 2011

Change the Weather History Date:

Thursday, October 20, 2011

  Actual Average Record
Temperature  
Mean Temperature 42 °F -  
Max Temperature 44 °F 42 °F 55 °F (2003)
Min Temperature 39 °F 33 °F 23 °F (2002)
Degree Days  
Heating Degree Days 24    
Moisture  
Dew Point 34 °F    
Average Humidity 75    
Maximum Humidity 81    
Minimum Humidity 70    
Precipitation  
Precipitation 0.00 in - - ()
Sea Level Pressure  
Sea Level Pressure 30.05 in    
Wind  
Wind Speed 3 mph (ESE)    
Max Wind Speed 8 mph    
Max Gust Speed -    
Visibility 10 miles    
Events      
Averages and records for this station are not official NWS values.
T = Trace of Precipitation, MM = Missing Value Source: NWS Daily Summary

Daily Weather History Graph

Daily Weather History Graph

Search for Another Location

Airport or City:

Trip Planner

Search our weather history database for the weather conditions in past years. The results will help you decide how hot, cold, wet, or windy it might be!

Date:

Astronomy

Oct. 20, 2011 Rise Set
Actual Time 7:48 AM CDT 6:19 PM CDT
Civil Twilight 7:15 AM CDT 6:52 PM CDT
Nautical Twilight 6:38 AM CDT 7:29 PM CDT
Astronomical Twilight 6:01 AM CDT 8:06 PM CDT
Moon No Moon Rise 3:03 PM CDT (10/20)
Length of Visible Light 11h 36m
Length of Day
10h 31m
Last Quarter, 44% of the Moon is Illuminated
Oct 20
Last Quarter
Oct 26
New
Nov 2
First Quarter
Nov 10
Full
Nov 18
Last Quarter

Hourly Weather History & Observations

Time (CDT) Temp. Windchill Dew Point Humidity Pressure Visibility Wind Dir Wind Speed Gust Speed Precip Events Conditions
12:33 AM 41.0 °F 39.0 °F 33.8 °F 76% 30.15 in 10.0 mi East 3.5 mph - N/A   Overcast
12:53 AM 41.0 °F 37.1 °F 33.8 °F 76% 30.15 in 10.0 mi NE 5.8 mph - N/A   Overcast
1:13 AM 41.0 °F 38.0 °F 32.0 °F 70% 30.15 in 10.0 mi ENE 4.6 mph - N/A   Overcast
1:33 AM 41.0 °F - 32.0 °F 70% 30.15 in 10.0 mi Calm Calm - N/A   Overcast
1:53 AM 41.0 °F - 32.0 °F 70% 30.15 in 10.0 mi Calm Calm - N/A   Overcast
2:13 AM 41.0 °F 38.0 °F 32.0 °F 70% 30.15 in 10.0 mi NE 4.6 mph - N/A   Overcast
2:33 AM 41.0 °F 39.0 °F 32.0 °F 70% 30.14 in 10.0 mi NE 3.5 mph - N/A   Overcast
2:53 AM 41.0 °F 39.0 °F 32.0 °F 70% 30.13 in 10.0 mi NNE 3.5 mph - N/A   Overcast
3:14 AM 39.2 °F 35.9 °F 32.0 °F 75% 30.13 in 10.0 mi NE 4.6 mph - N/A   Overcast
3:33 AM 39.2 °F - 32.0 °F 75% 30.12 in 10.0 mi Calm Calm - N/A   Overcast
3:53 AM 39.2 °F 37.0 °F 32.0 °F 75% 30.12 in 10.0 mi ENE 3.5 mph - N/A   Overcast
4:13 AM 39.2 °F 37.0 °F 32.0 °F 75% 30.12 in 10.0 mi East 3.5 mph - N/A   Overcast
4:33 AM 39.2 °F 37.0 °F 32.0 °F 75% 30.11 in 10.0 mi NE 3.5 mph - N/A   Overcast
4:53 AM 39.2 °F - 32.0 °F 75% 30.12 in 10.0 mi Calm Calm - N/A   Overcast
5:13 AM 39.2 °F - 32.0 °F 75% 30.12 in 10.0 mi Calm Calm - N/A   Overcast
5:33 AM 41.0 °F - 32.0 °F 70% 30.12 in 10.0 mi Calm Calm - N/A   Overcast
5:53 AM 39.2 °F - 32.0 °F 75% 30.11 in 10.0 mi Calm Calm - N/A   Overcast
6:13 AM 39.2 °F - 32.0 °F 75% 30.11 in 10.0 mi Calm Calm - N/A   Overcast
6:33 AM 39.2 °F 35.9 °F 33.8 °F 81% 30.10 in 10.0 mi NW 4.6 mph - N/A   Overcast
6:53 AM 39.2 °F 35.9 °F 32.0 °F 75% 30.10 in 10.0 mi NW 4.6 mph - N/A   Overcast
7:33 AM 39.2 °F - 32.0 °F 75% 30.09 in 10.0 mi Calm Calm - N/A   Overcast
7:53 AM 39.2 °F 35.9 °F 33.8 °F 81% 30.09 in 10.0 mi NW 4.6 mph - N/A   Overcast
8:13 AM 39.2 °F - 32.0 °F 75% 30.09 in 10.0 mi Calm Calm - N/A   Overcast
8:34 AM 39.2 °F - 32.0 °F 75% 30.08 in 10.0 mi Calm Calm - N/A   Overcast
8:53 AM 39.2 °F 37.0 °F 33.8 °F 81% 30.08 in 10.0 mi NNE 3.5 mph - N/A   Overcast
9:13 AM 39.2 °F 37.0 °F 33.8 °F 81% 30.08 in 10.0 mi North 3.5 mph - N/A   Overcast
9:33 AM 39.2 °F - 33.8 °F 81% 30.08 in 10.0 mi Calm Calm - N/A   Overcast
9:53 AM 41.0 °F 37.1 °F 33.8 °F 76% 30.08 in 10.0 mi ENE 5.8 mph - N/A   Overcast
10:13 AM 41.0 °F - 33.8 °F 76% 30.08 in 10.0 mi Calm Calm - N/A   Overcast
10:33 AM 41.0 °F 38.0 °F 33.8 °F 76% 30.08 in 10.0 mi North 4.6 mph - N/A   Overcast
10:53 AM 41.0 °F - 33.8 °F 76% 30.07 in 10.0 mi Calm Calm - N/A   Overcast
11:14 AM 41.0 °F - 33.8 °F 76% 30.07 in 10.0 mi Calm Calm - N/A   Overcast
11:33 AM 41.0 °F 39.0 °F 33.8 °F 76% 30.07 in 10.0 mi East 3.5 mph - N/A   Overcast
11:53 AM 41.0 °F - 33.8 °F 76% 30.06 in 10.0 mi Calm Calm - N/A   Overcast
12:13 PM 41.0 °F 39.0 °F 33.8 °F 76% 30.05 in 10.0 mi ESE 3.5 mph - N/A   Overcast
12:33 PM 41.0 °F - 33.8 °F 76% 30.04 in 10.0 mi Calm Calm - N/A   Overcast
12:53 PM 42.8 °F 41.1 °F 33.8 °F 70% 30.03 in 10.0 mi WSW 3.5 mph - N/A   Overcast
1:33 PM 41.0 °F 39.0 °F 33.8 °F 76% 30.01 in 10.0 mi NNW 3.5 mph - N/A   Mostly Cloudy
1:53 PM 42.8 °F - 33.8 °F 70% 30.01 in 10.0 mi Calm Calm - N/A   Clear
2:13 PM 42.8 °F 41.1 °F 35.6 °F 76% 30.01 in 10.0 mi SSE 3.5 mph - N/A   Clear
2:33 PM 42.8 °F 41.1 °F 35.6 °F 76% 30.00 in 10.0 mi SSE 3.5 mph - N/A   Clear
2:53 PM 42.8 °F 40.1 °F 35.6 °F 76% 29.99 in 10.0 mi SSE 4.6 mph - N/A   Clear
3:13 PM 42.8 °F 38.6 °F 35.6 °F 76% 29.99 in 10.0 mi SSE 6.9 mph - N/A   Clear
3:33 PM 42.8 °F 38.6 °F 35.6 °F 76% 29.99 in 10.0 mi SSE 6.9 mph - N/A   Clear
3:53 PM 42.8 °F 38.6 °F 35.6 °F 76% 29.99 in 10.0 mi South 6.9 mph - N/A   Clear
4:13 PM 42.8 °F 38.6 °F 35.6 °F 76% 29.98 in 10.0 mi SSE 6.9 mph - N/A   Clear
4:33 PM 44.6 °F 40.7 °F 35.6 °F 71% 29.98 in 10.0 mi SSE 6.9 mph - N/A   Clear
4:53 PM 44.6 °F 40.7 °F 35.6 °F 71% 29.98 in 10.0 mi SSE 6.9 mph - N/A   Clear
5:14 PM 42.8 °F 38.0 °F 35.6 °F 76% 29.96 in 10.0 mi SSE 8.1 mph - N/A   Clear
5:33 PM 42.8 °F 38.0 °F 35.6 °F 76% 29.97 in 10.0 mi SSE 8.1 mph - N/A   Clear
5:53 PM 42.8 °F 40.1 °F 35.6 °F 76% 29.96 in 10.0 mi South 4.6 mph - N/A   Clear
6:14 PM 42.8 °F 39.3 °F 35.6 °F 76% 29.96 in 10.0 mi SSE 5.8 mph - N/A   Clear
6:33 PM 42.8 °F 41.1 °F 35.6 °F 76% 29.96 in 10.0 mi South 3.5 mph - N/A   Clear
7:13 PM 44.6 °F 41.4 °F 37.4 °F 76% 29.96 in 10.0 mi SSE 5.8 mph - N/A   Clear
7:53 PM 42.8 °F - 37.4 °F 81% 29.95 in 10.0 mi Calm Calm - N/A   Clear
8:13 PM 42.8 °F 38.6 °F 35.6 °F 76% 29.94 in 10.0 mi SSE 6.9 mph - N/A   Clear
8:33 PM 44.6 °F 41.4 °F 37.4 °F 76% 29.93 in 10.0 mi SSE 5.8 mph - N/A   Clear
8:53 PM 44.6 °F 40.7 °F 37.4 °F 76% 29.93 in 10.0 mi SSE 6.9 mph - N/A   Clear
9:13 PM 44.6 °F 41.4 °F 37.4 °F 76% 29.93 in 10.0 mi SSE 5.8 mph - N/A   Clear
9:33 PM 44.6 °F 40.7 °F 37.4 °F 76% 29.92 in 10.0 mi SSE 6.9 mph - N/A   Clear
9:53 PM 44.6 °F 40.7 °F 37.4 °F 76% 29.92 in 10.0 mi SSE 6.9 mph - N/A   Clear
10:14 PM 44.6 °F 40.7 °F 39.2 °F 81% 29.92 in 10.0 mi SSE 6.9 mph - N/A   Clear
10:33 PM 44.6 °F 40.2 °F 39.2 °F 81% 29.92 in 10.0 mi SSE 8.1 mph - N/A   Clear
10:53 PM 44.6 °F 39.7 °F 39.2 °F 81% 29.92 in 10.0 mi SSE 9.2 mph - N/A   Clear
11:14 PM 44.6 °F 38.8 °F 39.2 °F 81% 29.92 in 10.0 mi SSE 11.5 mph - N/A   Clear
11:33 PM 44.6 °F 39.2 °F 39.2 °F 81% 29.91 in 10.0 mi South 10.4 mph - N/A   Clear
11:53 PM 44.6 °F 39.2 °F 39.2 °F 81% 29.91 in 10.0 mi South 10.4 mph - N/A   Clear